CZ-6A DEB

Satellite information

Favourite Embed

Satellite Type and Status

DEBRISIN ORBIT

Key statistics

Satellite CZ-6A DEB at a glance.

Uptime

969

Days in orbit

Revolutions

≈ 14.6

Per day

Orbit

SSO

Sun Synchronous Orbit

Inclination

98.7

Latest

Satellite identification and parameters

Extended collection of information and parameters for CZ-6A DEB.

Object identification

Identified? True

Debris? True

Object name: CZ-6A DEB

International designator: 2022-151GK

Object number (NORAD): 54459

Object ID (CCSDS): 54459

Country: PEOPLES REPUBLIC OF CHINA (PRC)

Current information (Y/N): Y

RCS size: SMALL

Orbital parameters

Period: 98.933 minutes

Inclination: 98.7246 deg

SMA: 7085.789 km

Apoapsis: 819.467 km

Periapsis: 595.842 km

RAAN: 254.7743 deg

Eccentricy: 0.0157798

Argument of periapsis: 224.6272 deg

Mean anomaly: 134.2133 deg

Mean motion: 14.55527483 rev/day

Mean motion (dot): 0.00000879 rev/day2

B* drag term: 0.00018244 1/REarth

Two-line elements (TLE)

Creation date: July 6, 2025, 6:05 p.m.

Reference frame: TEME

Reference center: EARTH

Epoch: July 6, 2025, 10:26 a.m. UTC

TLE line 0: 0 CZ-6A DEB

TLE line 1: 1 54459U 22151GK 25187.43503474 .00000879 00000-0 18244-3 0 9997

TLE line 2: 2 54459 98.7246 254.7743 0157798 224.6272 134.2133 14.55527483140230

Live tracking on map

Real-time ground track for satellite CZ-6A DEB.

In-orbit conjunctions

A list of the most updated potential collisions computed for object CZ-6A DEB.

Target Orbit TCA Probability of collision Miss distance Type
COSMOS 2251 DEB LEO 2025-05-03 22:49:49 0.0001985465 151.0 (m) DEBRIS
METEOR 2-6 DEB LEO 2024-12-18 14:15:07 0.0001639959 100.0 (m) DEBRIS
CZ-6A DEB SSO 2024-07-06 12:46:49 0.0001612368 531.0 (m) DEBRIS

Associated space launch

Chinese satellite reported for atmospheric/ocean/environmental/spatial parameter research purposes, details TBD.

CZ-6A DEB was lifted into orbit during the mission ‘Long March 6A | Yunhai 3’, on board a Long March 6A space rocket.

The launch took place on Nov. 11, 2022, 10:52 p.m. from Launch Complex 9A.

For more information about the launch, click the button.

Launch to space Long March 6A | Yunhai 3
Long March 6A | Yunhai 3

Agency: N/A

Status: Launch Successful

Launch date: Nov. 11, 2022, 10:52 p.m. UTC

Rocket: Long March 6A

Launch pad: Launch Complex 9A

Location: Taiyuan Satellite Launch Center, People's Republic of China

...

Latest news about this satellite

There are no fresh news available about this satellite. Check back as we update our databases every day.


Newsletter sign-up

Weekly statistics, charts and insights to help you stay on top of the space industry.